Location: Endfield
(51.6667°N, 0.0667°W)
Time: 05:06:30
(UTC+00:00)

Meteor 1-19 Rocket - Pass Details

Date: 19 May 2024
Orbit: 804 x 929 km, 81.2° (Epoch: 19 June)

Event Time Altitude Azimuth Distance (km) Brightness Sun altitude
Exits shadow 22:14:02 20° 175° (S) 1,984 5.6 -14.9°
Maximum altitude 22:18:13 66° 98° (E) 983 4.4 -15.1°
Drops below altitude 10° 22:23:58 10° 18° (NNE) 2,544 7.4 -15.5°
Sets 22:26:24 0° 15° (NNE) 3,468 8.3 -15.6°
